Weather in Sivomaskinskij

Russia / Komi Republic     66°40′21″N   62°34′14″E
temp.,
°C
wind,
m/s
gust,
m/s
humid.,
%
clouds,
%
prec.,
mm/h
press.,
hPa
HPBL,
m
11 may, tue
tue1100:00+2ssw2298100 0.3 102446
03:00+3wsw2394100 0.3 102561
06:00+5wsw3572100 0.0 1025348
09:00+8sw5656100 0.0 1024803
12:00+10wsw7847100 0.0 10231482
15:00+10sw7946100 0.0 10231744
18:00+8wsw71064100 0.0 10221064
21:00+6w6989100 1.1 1022998
12 may, wed
wed1200:00+5w3788100 0.2 1022291
03:00+5wsw2491100 0.2 1022139
06:00+5sw3692100 0.1 1021316
09:00+7ssw4687100 0.3 1020419
12:00+6s5992100 0.3 1018384
15:00+7sw61398100 2.1 1017522
18:00+9wnw71393100 0.3 1017624
21:00+6nw71192100 0.3 1019663
13 may, thu
thu1300:00+3nnw61093100 0.0 1023615
03:00+1nnw6108051 0.0 1026468
06:00+3nnw576747 0.0 1028713
09:00+6nw685244 0.0 10281283
12:00+8nw674214 0.0 10281453
15:00+8nw563981 0.0 10271344
18:00+8nnw2343100 0.0 1026925
21:00+7e3451100 0.0 1024121
14 may, fri
fri1400:00+6se4961100 0.0 1019219
03:00+7s41075100 0.9 1015286
06:00+11sw5107797 0.9 1012433
09:00+14wnw71069100 0.9 1011854
12:00+10wnw61291100 2.1 1013651
15:00+5n4688100 3.5 1016311
18:00+5ne3582100 1.4 1017415
21:00+5ene348589 1.5 1017297
15 may, sat
sat1500:00+4e348989 0.0 1017167
03:00+3ese468398 0.0 1017243
06:00+3ese458284 0.1 1017228
09:00+3se6787100 1.5 1015248
12:00+6se4474100 0.1 1014320
15:00+5ese327657 0.0 1017393
18:00
21:00+5se358496 0.3 1010135